Flag for Rwanda

Past Weather in Kigali, Rwanda — Yesterday and Last 2 Weeks

Now
79 °F

Scattered clouds.


Feels Like: 79 °F
Forecast: 80 / 61 °F
Wind: 5 mph from South

Location: Kigali Airport

Current Time: Jul 9, 2020 at 5:39:45 pm

Latest Report: Jul 9, 2020 at 5:00 pm


Visibility: N/A

Pressure: 30.04 "Hg (25.15 "Hg at 1555m altitude)

Humidity: 42%

Dew Point: 54 °F

Location of KigaliLocation

Past Weather in Kigali — Graph

°F

Kigali Temperature Yesterday

Maximum temperature yesterday: 81 °F (at 2:00 pm)
Minimum temperature yesterday: 61 °F (at 5:30 am)
Average temperature yesterday: 69 °F

High & Low Weather Summary for the Past Weeks

 TemperatureHumidityPressure
High81 °F (Jun 27, 2:30 pm)88% (Jun 25, 6:00 am)30.21 "Hg (Jun 25, 6:00 am)
Low59 °F (Jul 9, 6:30 am)37% (Jun 30, 12:30 pm)29.89 "Hg (Jun 28, 12:30 pm)
Average71 °F58%30.12 "Hg
* Reported Jun 24 6:30 pm — Jul 9 4:00 pm, Kigali. Weather by CustomWeather, © 2020

Note: Actual official high and low records may vary slightly from our data, if they occured in-between our weather recording intervals... More about our weather records

Kigali Weather History for the Previous 24 Hours

Scroll right to see more
 ConditionsComfort  
Time TempWeatherWind HumidityBarometerVisibility
4:00 pm
Thu, Jul 9
81 °FScattered clouds.3 mph37%30.04 "HgN/A
3:30 pm77 °FScattered clouds.8 mph44%30.04 "HgN/A
3:00 pm79 °FScattered clouds.5 mph42%30.07 "HgN/A
2:00 pm81 °FScattered clouds.6 mph42%30.07 "HgN/A
12:00 pm77 °FPartly sunny.8 mph47%30.15 "HgN/A
11:00 am75 °FScattered clouds.10 mph47%30.15 "HgN/A
10:00 am73 °FScattered clouds.5 mph50%30.18 "HgN/A
9:30 am72 °FScattered clouds.5 mph53%30.18 "HgN/A
9:00 am72 °FScattered clouds.3 mph57%30.18 "HgN/A
8:00 am66 °FScattered clouds.2 mph73%30.18 "Hg5 mi
7:30 am64 °FPassing clouds.2 mph78%30.18 "HgN/A
7:00 am63 °FPassing clouds.No wind77%30.18 "Hg6 mi
6:30 am59 °FPassing clouds.2 mph82%30.15 "Hg6 mi
6:00 am61 °FPassing clouds.No wind77%30.15 "Hg6 mi
5:30 am63 °FPassing clouds.2 mph73%30.12 "HgN/A
5:00 am61 °FPassing clouds.3 mph77%30.15 "HgN/A
4:30 am61 °FPassing clouds.6 mph77%30.12 "HgN/A
3:00 am64 °FPassing clouds.2 mph68%30.12 "HgN/A
2:30 am64 °FPassing clouds.No wind68%30.12 "HgN/A
2:00 am66 °FMild.No wind64%30.12 "HgN/A
1:30 am66 °FPassing clouds.2 mph64%30.12 "HgN/A
1:00 am66 °FPassing clouds.2 mph64%30.12 "HgN/A
12:00 am68 °FPassing clouds.1 mph60%30.15 "HgN/A
11:00 pm
Wed, Jul 8
70 °FPassing clouds.3 mph57%30.15 "HgN/A
10:30 pm72 °FPassing clouds.2 mph50%30.15 "HgN/A
10:00 pm72 °FPassing clouds.No wind50%30.15 "HgN/A
Weather by CustomWeather, © 2020

See weather overview